Wetterdaten: aktuell Freitag, 09.12.2022 12:20
Datum Zeit Temp. A. Feuchte A. Luftdruck Regen Wind Richtung Richtung Sonnenschein Solar Taupunkt Windchill Windben
09.12.2022 12:20 0,1 C 97 % 1005,3 hPa 0,0 l/m 0,4 km/h (0 Bft) SO 146 0 min 25 W/m -0,3 C 0,1 C 4,8 km/h (1 Bft)
09.12.2022 12:15 0,1 C 97 % 1005,4 hPa 0,0 l/m 0,6 km/h (0 Bft) S-SO 159 0 min 26 W/m -0,3 C 0,1 C 3,2 km/h (1 Bft)
09.12.2022 12:10 0,1 C 97 % 1005,3 hPa 0,0 l/m 0,9 km/h (0 Bft) SW 217 0 min 26 W/m -0,3 C 0,1 C 4,8 km/h (1 Bft)
09.12.2022 12:05 0,2 C 97 % 1005,3 hPa 0,0 l/m 0,6 km/h (0 Bft) S-SO 153 0 min 26 W/m -0,2 C 0,2 C 3,2 km/h (1 Bft)
09.12.2022 12:00 0,2 C 97 % 1005,3 hPa 0,0 l/m 0,5 km/h (0 Bft) S-SO 150 0 min 25 W/m -0,2 C 0,2 C 4,8 km/h (1 Bft)
09.12.2022 11:55 0,2 C 97 % 1005,3 hPa 0,0 l/m 0,8 km/h (0 Bft) S-SO 161 0 min 23 W/m -0,2 C 0,2 C 9,7 km/h (2 Bft)
09.12.2022 11:50 0,2 C 97 % 1005,3 hPa 0,0 l/m 0,0 km/h (0 Bft) S-SO 153 0 min 24 W/m -0,2 C 0,2 C 0,0 km/h (0 Bft)
09.12.2022 11:45 0,1 C 97 % 1005,3 hPa 0,0 l/m 0,0 km/h (0 Bft) S-SO 154 0 min 21 W/m -0,3 C 0,1 C 0,0 km/h (0 Bft)
09.12.2022 11:40 0,1 C 97 % 1005,4 hPa 0,0 l/m 0,3 km/h (0 Bft) S-SO 154 0 min 19 W/m -0,3 C 0,1 C 3,2 km/h (1 Bft)
09.12.2022 11:35 0,1 C 97 % 1005,5 hPa 0,0 l/m 0,0 km/h (0 Bft) S-SO 160 0 min 15 W/m -0,3 C 0,1 C 1,6 km/h (1 Bft)
09.12.2022 11:30 0,1 C 97 % 1005,5 hPa 0,0 l/m 0,0 km/h (0 Bft) S-SO 160 0 min 18 W/m -0,3 C 0,1 C 0,0 km/h (0 Bft)
09.12.2022 11:25 0,1 C 97 % 1005,5 hPa 0,0 l/m 0,0 km/h (0 Bft) S-SO 160 0 min 18 W/m -0,3 C 0,1 C 0,0 km/h (0 Bft)
09.12.2022 11:20 0,1 C 97 % 1005,6 hPa 0,0 l/m 0,6 km/h (0 Bft) S-SO 160 0 min 18 W/m -0,3 C 0,1 C 6,4 km/h (2 Bft)
09.12.2022 11:15 0,2 C 97 % 1005,6 hPa 0,0 l/m 0,7 km/h (0 Bft) SO 141 0 min 17 W/m -0,2 C 0,2 C 4,8 km/h (1 Bft)
09.12.2022 11:10 0,2 C 97 % 1005,6 hPa 0,0 l/m 0,1 km/h (0 Bft) SO 136 0 min 19 W/m -0,2 C 0,2 C 1,6 km/h (1 Bft)
09.12.2022 11:05 0,2 C 97 % 1005,6 hPa 0,0 l/m 0,0 km/h (0 Bft) SO 126 0 min 16 W/m -0,2 C 0,2 C 0,0 km/h (0 Bft)
09.12.2022 11:00 0,2 C 97 % 1005,6 hPa 0,0 l/m 0,0 km/h (0 Bft) SO 126 0 min 18 W/m -0,2 C 0,2 C 0,0 km/h (0 Bft)
09.12.2022 10:55 0,1 C 97 % 1005,6 hPa 0,0 l/m 0,0 km/h (0 Bft) SO 128 0 min 18 W/m -0,3 C 0,1 C 1,6 km/h (1 Bft)
09.12.2022 10:50 0,1 C 97 % 1005,6 hPa 0,0 l/m 0,0 km/h (0 Bft) SO 128 0 min 18 W/m -0,3 C 0,1 C 0,0 km/h (0 Bft)
09.12.2022 10:45 0,0 C 97 % 1005,6 hPa 0,0 l/m 0,0 km/h (0 Bft) SO 128 0 min 15 W/m -0,4 C 0,0 C 0,0 km/h (0 Bft)
09.12.2022 10:40 -0,1 C 97 % 1005,5 hPa 0,0 l/m 0,0 km/h (0 Bft) SO 128 0 min 19 W/m -0,5 C -0,1 C 0,0 km/h (0 Bft)
_ Min-Zeit 09:10 13:00 05:50 - 13:15 - - - - 09:10 09:10 13:20
Minimum _ -1,4 C 96 % 1005,1 hPa - 0,0 km/h (0 Bft) - - - - -1,8 C -1,4 C 0,0 km/h (0 Bft)
_ Max-Zeit 13:00 17:30 02:50 13:00 13:05 - - 13:00 12:05 13:00 13:00 13:05
Maximum _ 0,7 C 97 % 1006,3 hPa 0,3 l/m 1,0 km/h
W (0 Bft)
- - 0 min 26 W/m 0,1 C 0,7 C 9,7 km/h
W (2 Bft)
Durchschnitt _ 0,1 C 97 % 1005,7 hPa #1,3 l/m 0,1 km/h (0 Bft) N - #0 min. 15 W/m -0,3 C 0,1 C 0,8 km/h (0 Bft)